Weather History for DeKalb, IL

Change the Weather History Date:

Sunday, January 20, 2013

  Actual Average (KARR) Record (KARR)
Temperature  
Mean Temperature 15 °F 21 °F  
Max Temperature 20 °F 29 °F 40 °F (2006)
Min Temperature 10 °F 12 °F -8 °F (2008)
Degree Days  
Heating Degree Days 50 45  
Month to date heating degree days 880  
Since 1 July heating degree days 3529  
Cooling Degree Days 0 0  
Month to date cooling degree days 0  
Year to date cooling degree days 0  
Moisture  
Dew Point 2 °F    
Average Humidity 61    
Maximum Humidity 68    
Minimum Humidity 51    
Precipitation  
Precipitation 0.00 in 0.05 in 0.09 in (2006)
Month to date precipitation 0.85  
Year to date precipitation 0.85  
Sea Level Pressure  
Sea Level Pressure 30.20 in    
Wind  
Wind Speed 19 mph (WNW)    
Max Wind Speed 31 mph    
Max Gust Speed 40 mph    
Visibility 10 miles    
Events      
T = Trace of Precipitation, MM = Missing Value Source: NWS Daily Summary

Daily Weather History Graph

Daily Weather History Graph

Search for Another Location

Airport:

Trip Planner

Search our weather history database for the weather conditions in past years. The results will help you decide how hot, cold, wet, or windy it might be!

Date:

Astronomy

Jan. 20, 2013 Rise Set
Actual Time 7:17 AM CST 4:55 PM CST
Civil Twilight 6:46 AM CST 5:25 PM CST
Nautical Twilight 6:12 AM CST 5:59 PM CST
Astronomical Twilight 5:39 AM CST 6:32 PM CST
Moon 11:56 AM CST (1/20) 1:48 AM CST (1/20)
Length of Visible Light 10h 38m
Length of Day
9h 37m
Waxing Gibbous, 66% of the Moon is Illuminated
Jan 20
Waxing Gibbous
Jan 26
Full
Feb 3
Last Quarter
Feb 10
New
Feb 17
First Quarter

Hourly Weather History & Observations

Time (CST) Temp. Windchill Dew Point Humidity Pressure Visibility Wind Dir Wind Speed Gust Speed Precip Events Conditions
12:15 AM 20.3 °F 1.5 °F 6.8 °F 56% 29.97 in 10.0 mi WNW 31.1 mph 40.3 mph N/A   Clear
12:35 AM 19.2 °F 1.5 °F 6.8 °F 59% 29.99 in 10.0 mi WNW 25.3 mph 35.7 mph N/A   Clear
12:55 AM 18.7 °F 2.3 °F 7.7 °F 62% 30.01 in 10.0 mi WNW 20.7 mph 36.8 mph N/A   Clear
1:15 AM 17.6 °F -1.3 °F 5.7 °F 60% 30.02 in 10.0 mi WNW 27.6 mph 39.1 mph N/A   Clear
1:35 AM 17.2 °F -1.5 °F 7.0 °F 64% 30.04 in 10.0 mi WNW 26.5 mph 33.4 mph N/A   Clear
1:55 AM 16.5 °F -1.4 °F 7.3 °F 67% 30.06 in 10.0 mi WNW 23.0 mph 28.8 mph N/A   Scattered Clouds
2:15 AM 15.3 °F -4.1 °F 4.1 °F 61% 30.08 in 10.0 mi WNW 26.5 mph 35.7 mph N/A   Clear
2:35 AM 14.9 °F -3.5 °F 5.4 °F 66% 30.09 in 10.0 mi WNW 23.0 mph 29.9 mph N/A   Clear
2:55 AM 14.7 °F -4.5 °F 4.6 °F 64% 30.11 in 10.0 mi WNW 25.3 mph 32.2 mph N/A   Clear
3:15 AM 14.0 °F -5.1 °F 4.3 °F 65% 30.12 in 10.0 mi WNW 24.2 mph 34.5 mph N/A   Clear
3:35 AM 13.3 °F -4.8 °F 2.7 °F 63% 30.14 in 10.0 mi WNW 20.7 mph 33.4 mph N/A   Clear
3:55 AM 12.9 °F -4.4 °F 3.4 °F 66% 30.14 in 10.0 mi WNW 18.4 mph 28.8 mph N/A   Clear
4:15 AM 12.2 °F -4.8 °F 1.9 °F 64% 30.14 in 10.0 mi NW 17.3 mph 27.6 mph N/A   Clear
4:35 AM 12.0 °F -6.0 °F 1.8 °F 64% 30.16 in 10.0 mi WNW 19.6 mph 26.5 mph N/A   Clear
4:55 AM 11.7 °F -5.5 °F 2.3 °F 66% 30.17 in 10.0 mi WNW 17.3 mph 25.3 mph N/A   Clear
5:15 AM 11.3 °F -7.0 °F 1.2 °F 64% 30.18 in 10.0 mi WNW 19.6 mph 29.9 mph N/A   Clear
5:35 AM 10.9 °F -7.0 °F 2.1 °F 68% 30.19 in 10.0 mi WNW 18.4 mph 25.3 mph N/A   Clear
5:55 AM 10.4 °F -7.7 °F 1.4 °F 67% 30.21 in 10.0 mi WNW 18.4 mph 26.5 mph N/A   Clear
6:15 AM 10.4 °F -6.6 °F 1.4 °F 67% 30.21 in 10.0 mi WNW 16.1 mph - N/A   Clear
6:35 AM 10.0 °F -8.1 °F 1.4 °F 68% 30.22 in 10.0 mi WNW 18.4 mph 23.0 mph N/A   Clear
6:55 AM 10.0 °F -7.1 °F 1.2 °F 68% 30.23 in 10.0 mi WNW 16.1 mph 24.2 mph N/A   Clear
7:15 AM 10.0 °F -8.1 °F 0.9 °F 66% 30.24 in 10.0 mi WNW 18.4 mph 27.6 mph N/A   Clear
7:35 AM 10.0 °F -8.1 °F 1.2 °F 68% 30.25 in 10.0 mi WNW 18.4 mph 21.9 mph N/A   Clear
7:55 AM 10.0 °F -6.5 °F 0.5 °F 65% 30.26 in 10.0 mi WNW 15.0 mph 24.2 mph N/A   Clear
8:15 AM 10.0 °F -7.1 °F 1.2 °F 68% 30.27 in 10.0 mi WNW 16.1 mph 21.9 mph N/A   Clear
8:35 AM 11.3 °F -5.5 °F 1.8 °F 66% 30.27 in 10.0 mi WNW 16.1 mph - N/A   Clear
8:55 AM 11.1 °F -3.9 °F 1.4 °F 65% 30.28 in 10.0 mi WNW 12.7 mph 20.7 mph N/A   Clear
9:15 AM 11.1 °F -3.9 °F 1.8 °F 66% 30.28 in 10.0 mi WNW 12.7 mph - N/A   Clear
9:35 AM 12.0 °F -3.4 °F 1.6 °F 63% 30.28 in 10.0 mi WNW 13.8 mph 19.6 mph N/A   Clear
9:55 AM 12.4 °F -0.8 °F 1.9 °F 63% 30.28 in 10.0 mi NW 10.4 mph 17.3 mph N/A   Clear
10:15 AM 13.1 °F -0.7 °F 3.0 °F 64% 30.27 in 10.0 mi WNW 11.5 mph - N/A   Clear
10:35 AM 14.0 °F -0.2 °F 2.7 °F 61% 30.28 in 10.0 mi NW 12.7 mph - N/A   Clear
10:55 AM 14.5 °F -0.2 °F 3.0 °F 60% 30.28 in 10.0 mi WNW 13.8 mph 19.6 mph N/A   Clear
11:15 AM 14.9 °F 1.6 °F 4.1 °F 62% 30.27 in 10.0 mi WNW 11.5 mph 19.6 mph N/A   Clear
11:35 AM 14.9 °F 0.9 °F 3.2 °F 60% 30.27 in 10.0 mi WNW 12.7 mph - N/A   Clear
11:55 AM 15.4 °F 2.3 °F 3.2 °F 59% 30.27 in 10.0 mi NW 11.5 mph 17.3 mph N/A   Clear
12:15 PM 15.4 °F 1.0 °F 3.7 °F 60% 30.25 in 10.0 mi WNW 13.8 mph 18.4 mph N/A   Clear
12:35 PM 15.8 °F 1.4 °F 3.2 °F 58% 30.25 in 10.0 mi WNW 13.8 mph 20.7 mph N/A   Clear
12:55 PM 16.0 °F 1.7 °F 3.6 °F 58% 30.24 in 10.0 mi WNW 13.8 mph 19.6 mph N/A   Clear
1:15 PM 16.3 °F 1.6 °F 3.0 °F 56% 30.24 in 10.0 mi WNW 15.0 mph 19.6 mph N/A   Clear
1:35 PM 15.8 °F 3.4 °F 2.3 °F 55% 30.23 in 10.0 mi WNW 10.4 mph 19.6 mph N/A   Clear
1:55 PM 16.0 °F 1.7 °F 2.8 °F 56% 30.23 in 10.0 mi WNW 13.8 mph - N/A   Clear
2:15 PM 16.0 °F 0.6 °F 2.7 °F 56% 30.24 in 10.0 mi WNW 16.1 mph - N/A   Scattered Clouds
2:35 PM 16.9 °F 2.8 °F 2.5 °F 53% 30.23 in 10.0 mi WNW 13.8 mph - N/A   Scattered Clouds
2:55 PM 16.7 °F 2.6 °F 1.8 °F 52% 30.24 in 10.0 mi WNW 13.8 mph 18.4 mph N/A   Mostly Cloudy
3:15 PM 16.5 °F 3.6 °F 1.2 °F 51% 30.24 in 10.0 mi WNW 11.5 mph - N/A   Overcast
3:35 PM 16.5 °F 3.0 °F 1.8 °F 52% 30.24 in 10.0 mi WNW 12.7 mph 19.6 mph N/A   Overcast
3:55 PM 16.5 °F 3.0 °F 1.4 °F 52% 30.24 in 10.0 mi WNW 12.7 mph 16.1 mph N/A   Overcast
4:15 PM 16.3 °F 4.9 °F 1.0 °F 51% 30.24 in 10.0 mi WNW 9.2 mph - N/A   Overcast
4:35 PM 15.8 °F 2.7 °F 1.6 °F 54% 30.24 in 10.0 mi West 11.5 mph - N/A   Overcast
4:55 PM 15.4 °F 2.3 °F 0.5 °F 52% 30.24 in 10.0 mi WNW 11.5 mph - N/A   Overcast
5:15 PM 15.3 °F 2.0 °F 1.9 °F 56% 30.24 in 10.0 mi West 11.5 mph - N/A   Overcast
5:35 PM 14.9 °F 4.0 °F 1.4 °F 55% 30.24 in 10.0 mi West 8.1 mph - N/A   Overcast
5:55 PM 14.5 °F 1.9 °F 1.4 °F 56% 30.24 in 10.0 mi WNW 10.4 mph - N/A   Mostly Cloudy
6:15 PM 14.0 °F 2.0 °F 1.2 °F 57% 30.24 in 10.0 mi WNW 9.2 mph - N/A   Mostly Cloudy
6:35 PM 14.0 °F 0.5 °F 1.4 °F 57% 30.24 in 10.0 mi WNW 11.5 mph - N/A   Scattered Clouds
6:55 PM 14.0 °F 2.0 °F 2.1 °F 59% 30.24 in 10.0 mi WNW 9.2 mph - N/A   Mostly Cloudy
7:15 PM 13.8 °F 2.7 °F 2.3 °F 60% 30.24 in 10.0 mi WNW 8.1 mph - N/A   Mostly Cloudy
7:35 PM 13.8 °F 1.0 °F 1.6 °F 58% 30.23 in 10.0 mi WNW 10.4 mph - N/A   Overcast
7:55 PM 13.6 °F 0.0 °F 1.9 °F 60% 30.23 in 10.0 mi WNW 11.5 mph - N/A   Overcast
8:15 PM 13.6 °F 0.7 °F 0.7 °F 56% 30.22 in 10.0 mi WNW 10.4 mph 17.3 mph N/A   Overcast
8:35 PM 13.5 °F 2.2 °F 1.2 °F 58% 30.22 in 10.0 mi WNW 8.1 mph - N/A   Overcast
8:55 PM 13.1 °F -0.7 °F 0.7 °F 58% 30.21 in 10.0 mi WNW 11.5 mph - N/A   Overcast
9:15 PM 13.1 °F 0.1 °F 0.7 °F 58% 30.21 in 10.0 mi West 10.4 mph 17.3 mph N/A   Overcast
9:35 PM 12.9 °F -0.2 °F 0.9 °F 59% 30.21 in 10.0 mi West 10.4 mph - N/A   Overcast
9:55 PM 12.6 °F -2.0 °F 0.7 °F 59% 30.20 in 10.0 mi West 12.7 mph - N/A   Overcast
10:15 PM 12.6 °F -1.4 °F 0.7 °F 59% 30.20 in 10.0 mi West 11.5 mph - N/A   Overcast
10:35 PM 12.0 °F -2.0 °F 1.0 °F 61% 30.20 in 10.0 mi West 11.5 mph 17.3 mph N/A   Mostly Cloudy
10:55 PM 12.2 °F -1.8 °F 1.2 °F 61% 30.19 in 10.0 mi West 11.5 mph - N/A   Mostly Cloudy
11:15 PM 11.7 °F -0.9 °F 1.8 °F 65% 30.19 in 10.0 mi West 9.2 mph - N/A   Scattered Clouds
11:35 PM 11.3 °F -2.9 °F 1.4 °F 64% 30.19 in 10.0 mi West 11.5 mph 18.4 mph N/A   Scattered Clouds
11:55 PM 11.3 °F -2.2 °F 1.4 °F 64% 30.18 in 10.0 mi West 10.4 mph - N/A   Clear